Weather History for KDDC - March, 2013

Change the Weather History Date:

Saturday, March 23, 2013

  Actual Average Record
Temperature  
Mean Temperature 27 °F -  
Max Temperature 34 °F 56 °F 88 °F (1910)
Min Temperature 24 °F 30 °F 8 °F (1898)
Degree Days  
Heating Degree Days 38    
Moisture  
Dew Point 26 °F    
Average Humidity 89    
Maximum Humidity 93    
Minimum Humidity 79    
Precipitation  
Precipitation 0.12 in - - ()
Sea Level Pressure  
Sea Level Pressure 29.91 in    
Wind  
Wind Speed 16 mph (NNE)    
Max Wind Speed 29 mph    
Max Gust Speed 37 mph    
Visibility 2 miles    
Events Fog , Rain , Snow    
Averages and records for this station are not official NWS values.
T = Trace of Precipitation, MM = Missing Value Source: NWS Daily Summary

Daily Weather History Graph

Daily Weather History Graph

Search for Another Location

Airport or City:

Trip Planner

Search our weather history database for the weather conditions in past years. The results will help you decide how hot, cold, wet, or windy it might be!

Date:

Astronomy

Mar. 23, 2013 Rise Set
Actual Time 7:38 AM CDT 7:54 PM CDT
Civil Twilight 7:12 AM CDT 8:21 PM CDT
Nautical Twilight 6:41 AM CDT 8:51 PM CDT
Astronomical Twilight 6:10 AM CDT 9:23 PM CDT
Moon 4:26 PM CDT (3/23) 5:12 AM CDT (3/23)
Length of Visible Light 13h 08m
Length of Day
12h 16m
Waxing Gibbous, 85% of the Moon is Illuminated
Mar 23
Waxing Gibbous
Mar 27
Full
Apr 2
Last Quarter
Apr 10
New
Apr 18
First Quarter

Hourly Weather History & Observations

Time (CDT) Temp. Windchill Dew Point Humidity Pressure Visibility Wind Dir Wind Speed Gust Speed Precip Events Conditions
12:52 AM 32.0 °F 22.5 °F 28.0 °F 85% 29.85 in 7.0 mi East 12.7 mph - N/A   Mostly Cloudy
1:32 AM 33.8 °F 25.3 °F 28.4 °F 81% 29.83 in 7.0 mi East 11.5 mph - N/A   Overcast
1:52 AM 34.0 °F 24.2 °F 30.0 °F 85% 29.84 in 7.0 mi East 15.0 mph - N/A   Overcast
1:59 AM 33.8 °F 23.5 °F 28.4 °F 81% 29.82 in 7.0 mi East 16.1 mph - N/A   Overcast
2:13 AM 33.8 °F 23.9 °F 30.2 °F 87% 29.83 in 7.0 mi ESE 15.0 mph - N/A   Overcast
2:28 AM 33.8 °F 22.8 °F 30.2 °F 87% 29.82 in 7.0 mi East 18.4 mph 24.2 mph N/A   Overcast
2:52 AM 34.0 °F 23.4 °F 30.0 °F 85% 29.84 in 7.0 mi ESE 17.3 mph - N/A   Overcast
3:52 AM 33.1 °F 22.2 °F 28.9 °F 85% 29.85 in 7.0 mi ENE 17.3 mph - N/A   Overcast
4:52 AM 32.0 °F 21.6 °F 28.0 °F 85% 29.84 in 5.0 mi East 15.0 mph - N/A   Overcast
5:52 AM 30.9 °F 20.7 °F 27.0 °F 85% 29.84 in 5.0 mi East 13.8 mph - N/A   Overcast
6:52 AM 30.0 °F 21.1 °F 27.0 °F 88% 29.88 in 4.0 mi East 10.4 mph - N/A   Overcast
7:14 AM 30.2 °F 21.9 °F 26.6 °F 86% 29.87 in 4.0 mi East 9.2 mph - N/A   Overcast
7:35 AM 30.2 °F 21.9 °F 26.6 °F 86% 29.87 in 1.8 mi ENE 9.2 mph - N/A   Overcast
7:41 AM 30.2 °F 21.3 °F 28.4 °F 93% 29.87 in 0.8 mi ENE 10.4 mph - N/A   Overcast
7:52 AM 30.0 °F 23.2 °F 28.0 °F 92% 29.90 in 0.5 mi ENE 6.9 mph - N/A Fog Light Freezing Fog
8:17 AM 30.2 °F 20.2 °F 28.4 °F 93% 29.88 in 0.5 mi NE 12.7 mph - 0.00 in Fog , Rain Light Freezing Rain
8:35 AM 30.2 °F 20.8 °F 28.4 °F 93% 29.87 in 1.2 mi NE 11.5 mph - 0.01 in Rain Light Freezing Rain
8:43 AM 30.2 °F 20.2 °F 28.4 °F 93% 29.87 in 1.5 mi ENE 12.7 mph - 0.01 in Rain Light Freezing Rain
8:52 AM 30.0 °F 20.0 °F 28.0 °F 92% 29.91 in 1.8 mi ENE 12.7 mph - 0.01 in Rain Light Freezing Rain
9:19 AM 30.2 °F 20.2 °F 28.4 °F 93% 29.88 in 1.8 mi NE 12.7 mph - 0.00 in Rain Light Freezing Rain
9:25 AM 30.2 °F 19.8 °F 28.4 °F 93% 29.88 in 1.0 mi NE 13.8 mph - 0.00 in Rain Light Freezing Rain
9:52 AM 30.0 °F 18.3 °F 28.0 °F 92% 29.91 in 1.5 mi ENE 17.3 mph - 0.00 in Rain Light Freezing Rain
10:12 AM 30.2 °F 20.8 °F 28.4 °F 93% 29.88 in 1.5 mi NE 11.5 mph - 0.00 in Rain Light Freezing Rain
10:52 AM 30.0 °F 19.5 °F 28.0 °F 92% 29.92 in 1.5 mi NE 13.8 mph - 0.00 in Rain Light Freezing Rain
11:48 AM 30.2 °F 18.9 °F 28.4 °F 93% 29.88 in 2.0 mi NE 16.1 mph - 0.00 in Rain Light Freezing Rain
11:52 AM 30.0 °F 18.7 °F 28.0 °F 92% 29.93 in 2.5 mi NE 16.1 mph - 0.00 in Rain Light Freezing Rain
12:52 PM 30.0 °F 19.1 °F 27.0 °F 88% 29.91 in 3.0 mi ENE 15.0 mph - 0.00 in Rain Light Freezing Rain
1:04 PM 30.2 °F 19.8 °F 28.4 °F 93% 29.85 in 3.0 mi NE 13.8 mph - 0.00 in   Overcast
1:52 PM 30.0 °F 19.1 °F 28.0 °F 92% 29.90 in 4.0 mi NE 15.0 mph - 0.00 in   Overcast
2:50 PM 30.2 °F 18.1 °F 28.4 °F 93% 29.83 in 2.5 mi NE 18.4 mph - N/A   Overcast
2:52 PM 30.0 °F 18.3 °F 28.0 °F 92% 29.88 in 2.0 mi NE 17.3 mph - N/A   Overcast
3:27 PM 30.2 °F 18.1 °F 28.4 °F 93% 29.83 in 2.0 mi NE 18.4 mph 24.2 mph N/A   Overcast
3:31 PM 30.2 °F 18.1 °F 28.4 °F 93% 29.83 in 2.5 mi NNE 18.4 mph 24.2 mph N/A   Overcast
3:42 PM 30.2 °F 18.9 °F 28.4 °F 93% 29.83 in 1.8 mi NE 16.1 mph - N/A   Overcast
3:52 PM 30.0 °F 18.7 °F 28.0 °F 92% 29.88 in 1.8 mi NNE 16.1 mph - 0.00 in Rain Light Freezing Rain
4:15 PM 30.2 °F 17.8 °F 26.6 °F 86% 29.85 in 2.0 mi NNE 19.6 mph - 0.00 in Rain Light Freezing Rain
4:52 PM 28.9 °F 16.5 °F 27.0 °F 92% 29.91 in 2.0 mi NNE 18.4 mph 27.6 mph 0.00 in Rain Light Freezing Rain
5:07 PM 28.4 °F 14.7 °F 26.6 °F 93% 29.86 in 1.8 mi NNE 21.9 mph 27.6 mph 0.00 in Rain Light Freezing Rain
5:09 PM 28.4 °F 15.4 °F 26.6 °F 93% 29.86 in 1.8 mi NNE 19.6 mph 27.6 mph 0.00 in Snow Light Snow
5:21 PM 28.4 °F 15.4 °F 26.6 °F 93% 29.87 in 1.8 mi NNE 19.6 mph - 0.00 in Snow Light Snow
5:28 PM 28.4 °F 14.7 °F 26.6 °F 93% 29.87 in 2.0 mi NNE 21.9 mph 28.8 mph 0.00 in Snow Light Snow
5:52 PM 28.9 °F 15.8 °F 26.1 °F 89% 29.91 in 2.0 mi NNE 20.7 mph 32.2 mph 0.00 in Snow Light Snow
6:13 PM 28.4 °F 14.7 °F 24.8 °F 86% 29.84 in 3.0 mi NNE 21.9 mph 34.5 mph 0.00 in   Overcast
6:36 PM 28.4 °F 13.0 °F 24.8 °F 86% 29.81 in 2.0 mi NNE 28.8 mph 36.8 mph 0.00 in Snow Light Snow
6:52 PM 28.0 °F 13.3 °F 25.0 °F 88% 29.88 in 3.0 mi NNE 25.3 mph 33.4 mph 0.00 in   Overcast
7:12 PM 28.4 °F 14.7 °F 24.8 °F 86% 29.87 in 2.0 mi North 21.9 mph 34.5 mph 0.00 in Snow Light Snow
7:19 PM 28.4 °F 14.1 °F 24.8 °F 86% 29.89 in 1.5 mi North 24.2 mph 29.9 mph 0.00 in Snow Light Snow
7:26 PM 28.4 °F 15.1 °F 24.8 °F 86% 29.91 in 1.2 mi North 20.7 mph 31.1 mph 0.00 in Snow Light Snow
7:33 PM 28.4 °F 14.7 °F 24.8 °F 86% 29.92 in 1.5 mi North 21.9 mph 25.3 mph 0.00 in Snow Light Snow
7:44 PM 28.4 °F 16.6 °F 24.8 °F 86% 29.94 in 2.0 mi North 16.1 mph 25.3 mph 0.00 in Snow Light Snow
7:52 PM 28.0 °F 15.7 °F 25.0 °F 88% 30.01 in 2.0 mi North 17.3 mph 26.5 mph 0.01 in Snow Light Snow
7:56 PM 28.4 °F 15.1 °F 24.8 °F 86% 29.94 in 1.8 mi North 20.7 mph 26.5 mph 0.00 in Snow Light Snow
8:09 PM 28.4 °F 14.4 °F 24.8 °F 86% 29.94 in 1.2 mi North 23.0 mph 33.4 mph 0.02 in Snow Light Snow
8:25 PM 26.6 °F 12.0 °F 24.8 °F 93% 29.94 in 0.8 mi North 23.0 mph 31.1 mph 0.02 in Snow Light Snow
8:32 PM 26.6 °F 11.4 °F 24.8 °F 93% 29.94 in 0.8 mi North 25.3 mph 31.1 mph 0.03 in Snow Light Snow
8:52 PM 27.0 °F 12.5 °F 25.0 °F 92% 30.01 in 0.8 mi North 23.0 mph 27.6 mph 0.04 in   Mist
9:13 PM 26.6 °F 12.7 °F 24.8 °F 93% 29.96 in 1.0 mi North 20.7 mph 28.8 mph 0.01 in   Mist
9:26 PM 26.6 °F 13.4 °F 24.8 °F 93% 29.97 in 1.2 mi North 18.4 mph 28.8 mph 0.01 in   Overcast
9:44 PM 26.6 °F 13.8 °F 24.8 °F 93% 29.99 in 0.8 mi North 17.3 mph 26.5 mph 0.02 in   Overcast
9:52 PM 27.0 °F 12.5 °F 25.0 °F 92% 30.05 in 0.8 mi North 23.0 mph 33.4 mph 0.02 in   Mist
9:58 PM 26.6 °F 11.7 °F 24.8 °F 93% 29.99 in 1.0 mi North 24.2 mph 33.4 mph 0.01 in   Overcast
10:31 PM 26.6 °F 10.8 °F 24.8 °F 93% 30.01 in 0.8 mi North 27.6 mph 33.4 mph 0.02 in   Overcast
10:41 PM 26.6 °F 13.8 °F 24.8 °F 93% 30.02 in 0.8 mi NNW 17.3 mph 31.1 mph 0.02 in   Overcast
10:52 PM 26.1 °F 12.7 °F 23.0 °F 88% 30.09 in 0.8 mi North 18.4 mph 33.4 mph 0.02 in   Overcast
11:03 PM 26.6 °F 11.1 °F 23.0 °F 86% 30.02 in 0.8 mi North 26.5 mph 32.2 mph 0.01 in   Overcast
11:05 PM 26.6 °F 12.0 °F 23.0 °F 86% 30.02 in 0.8 mi North 23.0 mph 32.2 mph 0.01 in   Overcast
11:15 PM 24.8 °F 8.7 °F 21.2 °F 86% 30.03 in 1.0 mi North 26.5 mph 36.8 mph 0.02 in   Overcast
11:33 PM 24.8 °F 9.3 °F 21.2 °F 86% 30.03 in 1.5 mi NNW 24.2 mph 32.2 mph 0.02 in   Overcast
11:39 PM 24.8 °F 8.7 °F 21.2 °F 86% 30.04 in 1.2 mi North 26.5 mph 34.5 mph 0.02 in   Overcast
11:50 PM 24.8 °F 10.0 °F 21.2 °F 86% 30.04 in 1.5 mi North 21.9 mph 29.9 mph 0.02 in   Overcast
11:52 PM 25.0 °F 10.2 °F 21.9 °F 88% 30.11 in 1.5 mi North 21.9 mph 29.9 mph 0.02 in Snow Light Snow